Location: Unspecified
(35.7250°N, 0.0000°E)
Time: 11:54:31
(UTC+00:00)

Explorer 7 - Pass Details

Date: 25 June 2019
Orbit: 485 x 680 km, 50.3° (Epoch: 22 July)

Event Time Altitude Azimuth Distance (km) Brightness Sun altitude
Rises 10:36:12 0° 307° (NW) 2,840 10.2 67.6°
Reaches altitude 10° 10:39:41 10° 336° (NNW) 1,986 9.6 68.2°
Maximum altitude 10:41:48 13° 3° (N) 1,822 9.5 68.6°
Drops below altitude 10° 10:43:58 10° 31° (NNE) 2,038 9.9 69.0°
Sets 10:47:39 0° 59° (ENE) 2,986 10.7 69.6°
